[[{"header":{"parameterUnit":"m.s-1","parameterCategory":1,"la1":30.2991,"la2":30.254,"lo1":-89.0895,"lo2":-89.0444,"dy":0.0017,"dx":0.0017,"nx":28,"ny":28,"refTime":"2025-01-18T09:00:00:Z","depth":0,"parameterNumber":2,"parameterNumberName":"U-component_of_WINDS"},"data":[0,0,0,0,0,0,0,0,0,0,0,0,0,0,0,0,0,0,0,0,0,0,0,0,0,0,0,0,0,0,0,0,0,0,0,0,0,0,0,0,0,0,0,0,0,0,0,0,0,0,0,0,0,0,0,0,0,0,-1.3246,-1.3248,0,-1.3395,-1.3396,-1.3398,-1.3466,-1.3465,-1.3465,-1.3465,-1.3619,-1.3623,-1.3627,0,0,0,0,0,0,0,0,0,0,0,0,0,-1.3021,-1.3025,-1.3246,-1.3248,-1.325,-1.3394,-1.3397,-1.3399,-1.3466,-1.3465,-1.3465,-1.3465,-1.3617,-1.3622,-1.3627,0,0,0,0,0,0,0,0,0,0,0,0,0,-1.3139,-1.3026,-1.3246,-1.3301,-1.3307,-1.3394,-1.3397,-1.3399,-1.3466,-1.3465,-1.3465,-1.3465,-1.3616,-1.3622,-1.3628,-1.3672,0,0,-1.3647,-1.365,0,0,0,0,0,0,0,0,-1.3133,-1.3148,-1.3291,-1.3297,-1.3304,-1.3411,-1.3374,-1.3491,-1.3466,-1.3405,-1.3465,-1.3465,-1.355,-1.3562,-1.359,-1.3679,-1.3686,-1.3648,-1.3652,-1.3654,-1.3656,0,0,0,0,0,0,0,-1.3124,-1.3142,-1.3305,-1.3293,-1.3301,-1.3318,-1.3335,-1.3396,-1.3477,-1.3411,-1.3416,-1.3433,-1.3554,-1.3584,-1.3594,-1.3688,-1.3648,-1.3653,-1.3657,-1.366,-1.3821,-1.3821,0,0,0,0,0,0,-1.3107,-1.3134,-1.33,-1.3309,-1.3216,-1.3322,-1.3341,-1.3377,-1.3477,-1.3492,-1.3433,-1.3435,-1.3573,-1.3587,-1.36,-1.3658,-1.3654,-1.366,-1.3664,-1.382,-1.3821,-1.3821,0,0,0,0,0,0,-1.3102,-1.3121,-1.3294,-1.3223,-1.3247,-1.3327,-1.3367,-1.338,-1.3411,-1.3493,-1.3508,-1.3448,-1.3573,-1.3591,-1.3653,-1.3664,-1.3663,-1.3669,-1.382,-1.382,-1.3821,-1.3775,0,0,0,0,0,0,-1.3095,-1.3119,-1.3136,-1.3223,-1.325,-1.3345,-1.3368,-1.3383,-1.3421,-1.3426,-1.3512,-1.3526,-1.3575,-1.3644,-1.366,-1.3673,-1.3674,-1.3819,-1.382,-1.3821,-1.3775,-1.3774,-1.3772,0,0,0,0,0,-1.3087,-1.3118,-1.3137,-1.3156,-1.3273,-1.3345,-1.3361,-1.3416,-1.3422,-1.344,-1.3493,-1.3523,-1.366,-1.3649,-1.3668,-1.3684,-1.3819,-1.382,-1.3821,-1.3776,-1.3774,-1.3772,0,0,0,0,0,0,-1.3031,-1.313,-1.3152,-1.3212,-1.327,-1.3357,-1.3381,-1.3411,-1.3469,-1.3471,-1.3537,-1.3556,-1.3612,-1.3654,-1.364,-1.3731,-1.3742,-1.3747,-1.3702,-1.37,-1.3699,-1.3688,-1.3679,0,0,0,0,0,-1.3025,-1.3075,-1.3159,-1.3203,-1.3231,-1.3301,-1.3334,-1.3371,-1.3434,-1.3459,-1.3517,-1.3576,-1.3633,-1.3669,-1.3726,-1.3782,-1.3802,-1.3801,-1.38,-1.3798,-1.3801,-1.3834,-1.3835,-1.3825,-1.3825,-1.3825,0,0,-1.3014,-1.3074,-1.3102,-1.3194,-1.3243,-1.3293,-1.3321,-1.3373,-1.3412,-1.3467,-1.353,-1.3574,-1.3645,-1.3704,-1.3733,-1.3741,-1.3809,-1.3799,-1.3797,-1.3802,-1.3835,-1.3836,-1.3837,-1.3825,-1.3825,-1.3825,0,0,-1.302,-1.3071,-1.3113,-1.3161,-1.3235,-1.3281,-1.3291,-1.3374,-1.3405,-1.3469,-1.3511,-1.3558,-1.3654,-1.3703,-1.374,-1.3764,-1.3794,-1.3781,-1.3772,-1.3803,-1.3804,-1.3805,-1.3814,-1.3816,-1.3784,-1.3784,-1.3784,0,-1.2998,-1.3075,-1.3131,-1.3181,-1.322,-1.3272,-1.3316,-1.336,-1.3448,-1.3475,-1.3482,-1.3603,-1.3655,-1.3726,-1.3732,-1.376,-1.3774,-1.3771,-1.3799,-1.3801,-1.3802,-1.3812,-1.3815,-1.3782,-1.3782,-1.3782,-1.3782,0,-1.3044,-1.3096,-1.3122,-1.3205,-1.3247,-1.3294,-1.3358,-1.3393,-1.3426,-1.3472,-1.3536,-1.3599,-1.367,-1.3689,-1.3722,-1.3766,-1.3768,-1.3786,-1.3799,-1.38,-1.381,-1.3814,-1.3779,-1.3779,-1.378,-1.378,0,0,-1.3019,-1.3133,-1.3141,-1.3179,-1.3264,-1.3306,-1.3355,-1.3423,-1.3453,-1.3512,-1.3555,-1.3634,-1.3651,-1.3694,-1.3733,-1.376,-1.3775,-1.3775,-1.3777,-1.3773,-1.3827,-1.3813,-1.3816,-1.3795,-1.3796,-1.3797,-1.3821,0,-1.3037,-1.3126,-1.3178,-1.3247,-1.3296,-1.3346,-1.3388,-1.3445,-1.3488,-1.3537,-1.3585,-1.3641,-1.3659,-1.3685,-1.3714,-1.3767,-1.3787,-1.3766,-1.3836,-1.3838,-1.3817,-1.3821,-1.3807,-1.3827,-1.3825,-1.3826,-1.3826,0,-1.3071,-1.3128,-1.32,-1.3279,-1.3302,-1.3339,-1.3406,-1.3451,-1.3517,-1.3546,-1.3593,-1.3632,-1.3686,-1.3693,-1.3768,-1.3752,-1.3784,-1.3814,-1.3817,-1.3826,-1.3832,-1.3831,-1.3835,-1.3838,-1.3833,-1.3832,-1.3832,0,-1.3046,-1.3141,-1.3197,-1.3228,-1.3321,-1.3346,-1.3386,-1.3451,-1.3489,-1.3547,-1.3572,-1.3636,-1.3671,-1.372,-1.3775,-1.3775,-1.3844,-1.3856,-1.3871,-1.387,-1.3884,-1.3883,-1.3893,-1.3903,-1.3903,-1.3903,-1.3903,0,-1.3061,-1.3104,-1.3187,-1.3221,-1.3271,-1.333,-1.3377,-1.3421,-1.3478,-1.3522,-1.3569,-1.361,-1.368,-1.3729,-1.3772,-1.3828,-1.3843,-1.3869,-1.3881,-1.3866,-1.3862,-1.3888,-1.3888,-1.3904,-1.3904,-1.3904,-1.3904,0,-1.3042,-1.31,-1.3164,-1.3246,-1.3268,-1.33,-1.3371,-1.3407,-1.3452,-1.3507,-1.3524,-1.3596,-1.3656,-1.3715,-1.3797,-1.3826,-1.3881,-1.3896,-1.3859,-1.3865,-1.3877,-1.3875,-1.3905,-1.3912,-1.3916,-1.3916,-1.3916,0,-1.3048,-1.3082,-1.3168,-1.32,-1.3239,-1.3291,-1.3329,-1.3389,-1.3427,-1.3503,-1.353,-1.3593,-1.3647,-1.3741,-1.3801,-1.3863,-1.388,-1.3886,-1.389,-1.3874,-1.3881,-1.3879,-1.3882,-1.3885,-1.3884,-1.3884,-1.3884,0,-1.3053,-1.308,-1.3133,-1.3196,-1.324,-1.3293,-1.3347,-1.3371,-1.3441,-1.3482,-1.3544,-1.3585,-1.3668,-1.3731,-1.38,-1.3842,-1.3875,-1.3882,-1.3889,-1.3874,-1.3852,-1.3865,-1.3855,-1.3881,-1.3882,-1.3882,-1.3882,-1.3882,-1.3048,-1.308,-1.3145,-1.3203,-1.325,-1.3299,-1.3336,-1.3386,-1.3439,-1.351,-1.3542,-1.3604,-1.3669,-1.3765,-1.3806,-1.3856,-1.3864,-1.3874,-1.3877,-1.3878,-1.3875,-1.3843,-1.3869,-1.3869,-1.3869,-1.3869,-1.3869,0,-1.3056,-1.31,-1.3152,-1.3226,-1.3271,-1.3297,-1.3359,-1.3395,-1.3449,-1.3506,-1.3558,-1.3629,-1.369,-1.3753,-1.3818,-1.3846,-1.3863,-1.3861,-1.386,-1.3869,-1.3864,-1.3852,-1.3846,-1.3846,-1.3846,-1.3846,-1.3846,-1.3846,-1.3065,-1.3121,-1.3155,-1.3235,-1.3279,-1.334,-1.3373,-1.3419,-1.3464,-1.3541,-1.3592,-1.3633,-1.3693,-1.3762,-1.3819,-1.3836,-1.3858,-1.3852,-1.3874,-1.3868,-1.3869,-1.3871,-1.386,-1.3856,-1.3856,-1.3875,-1.3875,-1.3875]},{"header":{"parameterUnit":"m.s-1","parameterCategory":1,"la1":30.2991,"la2":30.254,"lo1":-89.0895,"lo2":-89.0444,"dy":0.0017,"dx":0.0017,"nx":28,"ny":28,"refTime":"2025-01-18T09:00:00:Z","depth":0,"parameterNumber":3,"parameterNumberName":"V-component_of_WINDS"},"data":[0,0,0,0,0,0,0,0,0,0,0,0,0,0,0,0,0,0,0,0,0,0,0,0,0,0,0,0,0,0,0,0,0,0,0,0,0,0,0,0,0,0,0,0,0,0,0,0,0,0,0,0,0,0,0,0,0,0,6.32,6.3201,0,6.3265,6.3265,6.3266,6.3192,6.3189,6.3186,6.3183,6.3251,6.3255,6.326,0,0,0,0,0,0,0,0,0,0,0,0,0,6.3015,6.3019,6.32,6.3201,6.3202,6.3265,6.3265,6.3266,6.3192,6.3189,6.3185,6.3182,6.325,6.3255,6.326,0,0,0,0,0,0,0,0,0,0,0,0,0,6.3089,6.302,6.32,6.3172,6.317,6.3264,6.3265,6.3267,6.3193,6.3189,6.3184,6.318,6.3248,6.3254,6.3261,6.3386,0,0,6.3281,6.3284,0,0,0,0,0,0,0,0,6.3085,6.3096,6.3176,6.3174,6.3172,6.3216,6.3225,6.3307,6.3194,6.3184,6.3183,6.3178,6.3243,6.325,6.3271,6.3389,6.3392,6.3282,6.3286,6.3288,6.329,0,0,0,0,0,0,0,6.308,6.3093,6.3226,6.3177,6.3175,6.3157,6.3163,6.324,6.3236,6.3185,6.318,6.3188,6.3241,6.3265,6.3272,6.3393,6.3281,6.3287,6.3291,6.3294,6.3619,6.3623,0,0,0,0,0,0,6.3078,6.3089,6.3224,6.3228,6.3117,6.3164,6.3171,6.3206,6.3235,6.3236,6.3192,6.3184,6.3255,6.3264,6.3274,6.3425,6.3288,6.3295,6.3298,6.3614,6.362,6.3625,0,0,0,0,0,0,6.3074,6.309,6.3221,6.3157,6.3172,6.3172,6.3212,6.321,6.3233,6.324,6.324,6.3216,6.3253,6.3265,6.3359,6.3426,6.3298,6.3304,6.3609,6.3616,6.3622,6.3725,0,0,0,0,0,0,6.3069,6.309,6.3137,6.3159,6.3176,6.3305,6.3216,6.3214,6.3245,6.3236,6.3263,6.3264,6.325,6.335,6.3366,6.3433,6.3309,6.3603,6.3612,6.362,6.3716,6.3735,6.3751,0,0,0,0,0,6.3063,6.3163,6.3139,6.3156,6.3235,6.3309,6.3319,6.33,6.325,6.3298,6.3303,6.3263,6.3415,6.336,6.3377,6.3447,6.3599,6.3609,6.362,6.3708,6.3731,6.3751,0,0,0,0,0,0,6.3149,6.3165,6.3139,6.3249,6.3278,6.3296,6.3356,6.3325,6.3369,6.3359,6.3334,6.3341,6.3442,6.3453,6.3391,6.3571,6.3499,6.3513,6.356,6.3582,6.3599,6.3596,6.3314,0,0,0,0,0,6.3181,6.3239,6.325,6.3346,6.3362,6.3357,6.3388,6.3371,6.34,6.3412,6.3424,6.3454,6.3509,6.3546,6.3596,6.3716,6.3723,6.3773,6.3791,6.3805,6.3819,6.3886,6.3909,6.3659,6.3659,6.3659,0,0,6.3248,6.3264,6.3302,6.3364,6.3384,6.3447,6.3367,6.3436,6.3482,6.3423,6.3513,6.3523,6.3555,6.3663,6.3712,6.3676,6.3889,6.3818,6.383,6.3836,6.3899,6.3923,6.3944,6.3666,6.3665,6.3664,0,0,6.3402,6.3418,6.3501,6.3523,6.3555,6.3551,6.3571,6.3593,6.3598,6.3687,6.3645,6.3699,6.3793,6.3819,6.3844,6.4008,6.3974,6.4025,6.4118,6.4184,6.4203,6.4221,6.4282,6.4304,6.4038,6.4038,6.4038,0,6.3481,6.3572,6.3548,6.362,6.365,6.3598,6.3683,6.3706,6.3753,6.3775,6.3733,6.3852,6.387,6.3985,6.4025,6.4046,6.407,6.4023,6.4202,6.4219,6.4235,6.4294,6.4317,6.4044,6.4044,6.4043,6.4043,0,6.3669,6.3733,6.3796,6.3843,6.3879,6.3958,6.3947,6.3986,6.3966,6.3967,6.406,6.4079,6.4134,6.4159,6.414,6.4272,6.425,6.4206,6.4134,6.4266,6.4321,6.4342,6.4053,6.4051,6.4049,6.4048,0,0,6.3881,6.3914,6.3938,6.396,6.399,6.404,6.4116,6.4169,6.4205,6.4238,6.4304,6.4384,6.4344,6.4373,6.4356,6.4413,6.4545,6.4362,6.4363,6.4399,6.4695,6.4731,6.4757,6.4522,6.4526,6.4529,6.4694,0,6.4038,6.417,6.4151,6.4279,6.4339,6.4291,6.4357,6.4384,6.4387,6.4438,6.444,6.45,6.4441,6.4458,6.4512,6.4518,6.4605,6.4505,6.4584,6.4587,6.4581,6.4785,6.4822,6.4977,6.4715,6.4718,6.4721,0,6.4239,6.4281,6.4415,6.4438,6.4462,6.4523,6.4571,6.462,6.465,6.4647,6.468,6.4653,6.4731,6.4655,6.4762,6.4695,6.4726,6.4733,6.4739,6.4748,6.4665,6.4803,6.5026,6.5051,6.4753,6.4751,6.4748,0,6.4385,6.4473,6.4566,6.4585,6.4614,6.4658,6.4672,6.4697,6.4731,6.4772,6.4795,6.4845,6.4873,6.4913,6.4901,6.4846,6.5013,6.4935,6.5015,6.5016,6.5055,6.5054,6.529,6.5069,6.5069,6.5068,6.5068,0,6.4564,6.4648,6.4632,6.4689,6.4783,6.476,6.4854,6.4862,6.4885,6.4944,6.4904,6.496,6.4939,6.4994,6.4984,6.5077,6.5089,6.5091,6.5088,6.5097,6.5097,6.5119,6.511,6.5075,6.5073,6.5072,6.5071,0,6.4743,6.4735,6.4833,6.4852,6.4859,6.4928,6.4944,6.4999,6.4997,6.5072,6.5088,6.5087,6.515,6.5141,6.521,6.5204,6.5321,6.5303,6.5311,6.5308,6.5391,6.5384,6.5652,6.5687,6.5441,6.5443,6.5445,0,6.486,6.4924,6.495,6.4986,6.5004,6.5063,6.5097,6.5076,6.5114,6.5153,6.5204,6.5263,6.5309,6.5413,6.5418,6.5472,6.5458,6.5547,6.5466,6.5473,6.5463,6.5461,6.5469,6.5565,6.5568,6.557,6.5572,0,6.5069,6.5062,6.5113,6.5163,6.5205,6.5243,6.5277,6.531,6.5292,6.5337,6.5401,6.5437,6.5508,6.5569,6.5619,6.5634,6.5602,6.5597,6.5619,6.5631,6.5634,6.5637,6.5359,6.5592,6.559,6.5588,6.5587,6.5587,6.5223,6.5279,6.5307,6.5365,6.5388,6.5422,6.5474,6.5479,6.5532,6.5589,6.5573,6.5647,6.5676,6.574,6.5761,6.5818,6.5786,6.5817,6.5825,6.5834,6.5846,6.5622,6.5827,6.5826,6.5826,6.5825,6.5825,0,6.5433,6.5448,6.5502,6.5552,6.5598,6.5561,6.5597,6.5639,6.5704,6.5733,6.578,6.5855,6.5913,6.5923,6.5979,6.6024,6.601,6.604,6.6038,6.6043,6.587,6.5847,6.605,6.605,6.605,6.6049,6.6049,6.6049,6.5549,6.5642,6.5638,6.5743,6.5757,6.5829,6.5853,6.5884,6.5908,6.5993,6.6041,6.6047,6.607,6.6127,6.6179,6.6181,6.6205,6.6241,6.6237,6.6077,6.6054,6.6033,6.6012,6.6245,6.6245,6.6405,6.6406,6.6408]}]]